This demonstration page uses our WeatherBlox Daily Observations layout. Learn more.

Left ArrowRight Arrow

Hourly Observations for May 4, 2021

Temp ( °F °C ) Dew Point ( °F °C ) Humidity (%) Winds ( mph kmh ) Pressure ( in mb ) Visibility ( mi km ) Precip ( " mm )
12:15 am 00:15 Mostly Cloudy 64 17.5 60 15.8 90 90 Calm 29.67 1005 10 16 0.00 0.00
12:35 am 00:35 Cloudy with Nearby Thunderstorms 63 17.2 60 15.8 92 92 S 5 7 29.68 1005 10 16 0.00 0.00
12:55 am 00:55 Mostly Cloudy 63 17.1 60 15.8 92 92 S 6 9 29.67 1005 10 16 0.00 0.00
1:15 am 01:15 Cloudy 63 17.1 61 16 93 93 S 6 9 29.67 1005 10 16 0.00 0.00
1:35 am 01:35 Cloudy 62 16.9 61 15.9 94 94 S 6 9 29.67 1005 10 16 0.00 0.00
1:55 am 01:55 Cloudy 63 17.3 61 16.1 93 93 S 6 9 29.68 1005 10 16 0.00 0.00
2:15 am 02:15 Cloudy 64 17.7 61 16.2 91 91 S 6 9 29.67 1005 10 16 0.00 0.00
2:35 am 02:35 Cloudy 64 17.9 61 16.3 90 90 S 8 13 29.66 1005 10 16 0.00 0.00
2:55 am 02:55 Cloudy 64 18 61 16.3 90 90 SSW 6 9 29.67 1005 10 16 0.00 0.00
3:15 am 03:15 Cloudy 64 18 62 16.5 91 91 SW 6 9 29.66 1005 10 16 0.00 0.00
3:35 am 03:35 Cloudy 65 18.2 62 16.6 90 90 WSW 7 11 29.67 1005 10 16 0.00 0.00
3:55 am 03:55 Cloudy 65 18.2 62 16.7 91 91 WSW 7 11 29.67 1005 10 16 0.00 0.00
4:15 am 04:15 Cloudy 65 18.1 62 16.6 91 91 W 7 11 29.66 1004 10 16 0.00 0.00
4:35 am 04:35 Cloudy 64 18 62 16.6 92 92 W 6 9 29.66 1005 10 16 0.00 0.00
4:55 am 04:55 Cloudy 64 17.8 62 16.5 92 92 W 7 11 29.64 1004 10 16 0.00 0.00
5:15 am 05:15 Cloudy 64 17.6 62 16.5 93 93 WNW 6 9 29.66 1005 7 11 0.00 0.00
5:35 am 05:35 Cloudy 64 17.5 61 16.3 93 93 WNW 7 11 29.67 1005 7 11 0.00 0.00
5:55 am 05:55 Cloudy 63 17 61 16 94 94 WNW 6 9 29.71 1006 7 11 0.00 0.00
6:15 am 06:15 Cloudy 62 16.6 60 15.8 95 95 NW 12 19 29.72 1006 7 11 0.00 0.00
6:35 am 06:35 Cloudy 61 16 59 15 94 94 NW 10 17 29.73 1007 7 11 0.00 0.00
6:55 am 06:55 Cloudy with Mist and Fog 60 15.5 59 15 97 97 NW 8 13 29.72 1006 3 5 0.00 0.00
7:15 am 07:15 Cloudy 60 15.6 58 14.7 94 94 NW 7 11 29.72 1006 7 11 0.00 0.00
7:35 am 07:35 Cloudy 60 15.7 58 14.6 93 93 NW 6 9 29.72 1006 10 16 0.00 0.00
7:55 am 07:55 Cloudy 60 15.7 58 14.5 93 93 NW 3 6 29.74 1007 10 16 0.00 0.00
8:15 am 08:15 Cloudy with Mist and Fog 57 14.1 56 13.4 96 96 N 12 19 29.76 1008 4 6 0.00 0.00
8:35 am 08:35 Cloudy with Mist and Fog 57 13.7 56 13.1 96 96 N 12 19 29.76 1008 4 6 0.00 0.00
8:55 am 08:55 Cloudy with Mist and Fog 56 13.2 55 12.6 96 96 N 14 22 29.75 1007 4 6 0.00 0.00
9:15 am 09:15 Cloudy 56 13.1 54 12 93 93 N 10 17 29.77 1008 10 16 0.00 0.00
9:35 am 09:35 Cloudy 55 13 53 11.7 92 92 NNW 10 17 29.79 1009 10 16 0.00 0.00
9:55 am 09:55 Cloudy 55 12.8 53 11.5 92 92 N 13 20 29.80 1009 10 16 0.00 0.00
10:15 am 10:15 Cloudy 55 13 52 11.3 90 90 N 7 11 29.81 1009 10 16 0.00 0.00
10:35 am 10:35 Cloudy 55 13 52 11 88 88 W 5 7 29.84 1011 10 16 0.00 0.00
10:55 am 10:55 Cloudy 56 13.1 51 10.8 86 86 NNW 8 13 29.83 1010 10 16 0.00 0.00
11:15 am 11:15 Cloudy 56 13.1 51 10.6 85 85 N 8 13 29.82 1010 10 16 0.00 0.00
11:35 am 11:35 Cloudy 56 13.4 52 11 86 86 N 10 17 29.79 1009 10 16 0.00 0.00
11:55 am 11:55 Mostly Cloudy 56 13.5 52 11.2 86 86 N 15 24 29.76 1008 10 16 0.00 0.00
12:15 pm 12:15 Mostly Cloudy with Light Rain 56 13.5 51 10.6 83 83 N 9 15 29.79 1009 10 16 0.00 0.00
12:35 pm 12:35 Cloudy with Light Rain 56 13.1 52 10.9 87 87 N 10 17 29.79 1009 10 16 0.00 0.00
12:55 pm 12:55 Cloudy with Rain 55 13 52 11.1 88 88 NNW 7 11 29.82 1010 7 11 0.01 0.25
1:15 pm 13:15 Cloudy with Light Rain 55 13 52 11 88 88 NNW 9 15 29.82 1010 10 16 0.02 0.51
1:35 pm 13:35 Cloudy with Light Rain 56 13.3 52 11.2 87 87 N 12 19 29.79 1009 10 16 0.02 0.51
1:55 pm 13:55 Mostly Cloudy 58 14.2 53 11.8 86 86 N 13 20 29.78 1008 10 16 0.02 0.51
2:15 pm 14:15 Cloudy with Light Rain 58 14.2 53 11.7 85 85 N 13 20 29.78 1008 10 16 0.00 0.00
2:35 pm 14:35 Cloudy 57 14.1 53 11.4 84 84 N 9 15 29.80 1009 10 16 0.00 0.00
2:55 pm 14:55 Cloudy 57 14 51 10.8 81 81 NNW 9 15 29.80 1009 10 16 0.00 0.00
3:15 pm 15:15 Cloudy 58 14.3 52 11.2 82 82 NNW 7 11 29.80 1009 10 16 0.00 0.00
3:35 pm 15:35 Cloudy 58 14.2 52 11 81 81 NNW 8 13 29.81 1009 10 16 0.00 0.00
3:55 pm 15:55 Cloudy 58 14.2 52 11.1 82 82 NW 10 17 29.81 1009 10 16 0.00 0.00
4:15 pm 16:15 Cloudy with Rain 57 14.1 52 11.1 82 82 NW 9 15 29.81 1009 10 16 0.00 0.00
4:35 pm 16:35 Cloudy with Drizzle 57 14 53 11.4 84 84 NW 7 11 29.80 1009 10 16 0.00 0.00
4:55 pm 16:55 Cloudy with Drizzle 57 14 53 11.7 86 86 NW 9 15 29.79 1009 10 16 0.00 0.00
5:15 pm 17:15 Cloudy 58 14.5 53 11.6 83 83 N 14 22 29.79 1009 10 16 0.00 0.00
5:35 pm 17:35 Cloudy 58 14.5 53 11.8 84 84 N 14 22 29.79 1009 10 16 0.00 0.00
5:55 pm 17:55 Cloudy 57 14.1 52 11.2 83 83 NNW 10 17 29.82 1010 10 16 0.00 0.00
6:15 pm 18:15 Cloudy 58 14.2 53 11.4 83 83 N 12 19 29.82 1010 10 16 0.00 0.00
6:35 pm 18:35 Cloudy 57 14 52 11.1 83 83 N 12 19 29.84 1010 10 16 0.00 0.00
6:55 pm 18:55 Cloudy 56 13.6 52 11.2 86 86 N 15 24 29.83 1010 10 16 0.00 0.00
7:15 pm 19:15 Cloudy 55 13 51 10.7 86 86 N 14 22 29.83 1010 10 16 0.00 0.00
7:35 pm 19:35 Cloudy 54 12.4 50 10.1 86 86 N 13 20 29.83 1010 10 16 0.00 0.00
7:55 pm 19:55 Cloudy with Light Rain 53 11.8 50 10 89 89 N 15 24 29.83 1010 10 16 0.00 0.00
8:15 pm 20:15 Cloudy with Drizzle 52 11.2 50 9.8 91 91 N 13 20 29.82 1010 10 16 0.00 0.00
8:35 pm 20:35 Cloudy 52 10.9 49 9.2 89 89 N 13 20 29.84 1010 10 16 0.00 0.00
8:55 pm 20:55 Cloudy 51 10.6 48 9 90 90 N 12 19 29.84 1010 10 16 0.00 0.00
9:15 pm 21:15 Cloudy with Rain 51 10.3 48 9.1 92 92 N 12 19 29.86 1011 10 16 0.00 0.00
9:35 pm 21:35 Cloudy with Light Rain 50 10 48 8.8 92 92 N 10 17 29.89 1012 10 16 0.01 0.25
9:55 pm 21:55 Cloudy with Light Rain 49 9.6 47 8.5 93 93 N 10 17 29.89 1012 10 16 0.01 0.25
10:15 pm 22:15 Cloudy with Drizzle 49 9.5 47 8.3 92 92 N 14 22 29.90 1013 10 16 0.00 0.00
10:35 pm 22:35 Cloudy with Drizzle 49 9.5 47 8.1 91 91 N 12 19 29.90 1013 10 16 0.00 0.00
10:55 pm 22:55 Cloudy 49 9.4 46 8 91 91 NNW 10 17 29.92 1013 10 16 0.00 0.00
11:15 pm 23:15 Cloudy 49 9.3 46 7.8 90 90 N 13 20 29.90 1013 10 16 0.00 0.00
11:35 pm 23:35 Cloudy 48 9.1 46 7.6 90 90 N 12 19 29.90 1013 10 16 0.00 0.00
11:55 pm 23:55 Cloudy 48 9 46 7.5 90 90 N 14 22 29.90 1013 10 16 0.00 0.00

Powered by AerisWeather